Ernesto Cortissoz International Airport
SKBQ : now visible

Airfield :











YOU CAN JOIN US ON...

 
LOGIN :

Register | Disclaimer

   EN    FR    IT 

 









Legend :    VFR   Marginal VFR   IFR   Intensive IFR   Very Intensive IFR
Visi :
Ceiling :
>= 8 km
>= 3000ft
5 to 8 km
1000 to 3000 ft
1500m to 5 km
500 to 1000 ft
800 to 1500m
200 to 500 ft
< 800m
< 200 ft
Symbols :   Thunderstorms  Fog  Heavy snow  Heavy precipitations  Wind > 20 kt






- Airport Elevation : 98 ft
- IATA code : BAQ


SKBQ - Ernesto Cortissoz International

CURRENT METAR :
  • 290600Z 02011KT CAVOK 26/23 A2975 NOSIG

EXPIRED METARs :
  • 290500Z 01013KT CAVOK 26/23 A2977 NOSIG
  • 290400Z 01014G24KT 9999 FEW015 26/23 A2978 NOSIG

TAF TAF SKBQ
Valid from the 29 at 06:00 until the 30 at 06:00 UTC


290430Z 2906/3006 01014KT CAVOK
BECMG 2910/2912 04004KT
BECMG 2916/2918 36014KT
TEMPO 2923/3004 01015G25KT TX33/2917Z TN25/2910Z



MET'MAP, your aeronautical weather chart ! - Copyright ORBIFLY December 2007 - Disclaimer

ORBIFLY MET'MAP TEAM :

Programming & Development : Alexandra Zaïnal
Concept & original design : Baudouin d'Aumeries
Assistance for programming : Marc-Olivier Méhu
Technical & hardware support : Manuel Goepfert

Contact : metmap@orbifly.com




SOURCES & CREDITS :

   NOAA       Earth
Advisory